Wind_Speed
16 17 16 13 11 12 13 15 15 15 16 16 16 15 13 13 12 13 13 13 13 13 13 14 13 13 13 13 12 11 11 11 10 10 9 10 11 11 12 12 12 12
18 18 17 14 12 11 13 14 15 15 15 15 14 13 12 12 13 13 14 14 13 13 13 13 13 13 14 13 13 12 11 11 11 10 10 10 11 11 12 12 13 13
19 19 18 16 14 13 13 15 15 15 15 15 14 13 12 12 12 13 14 14 13 13 13 13 13 13 14 14 14 13 12 11 11 10 10 11 11 11 11 12 12 13
19 20 19 18 17 15 14 14 15 16 15 15 15 14 13 12 12 13 14 13 13 13 13 13 13 14 14 14 14 13 13 12 11 11 11 11 11 11 11 11 11 12
21 21 20 19 18 16 14 14 15 15 15 15 15 14 13 13 13 14 13 13 12 12 13 13 13 14 14 14 14 14 13 12 12 11 11 11 11 11 11 11 11 11
22 22 21 20 18 17 15 14 15 15 16 16 15 14 14 14 14 14 13 12 11 11 12 13 13 14 14 14 14 14 13 13 13 12 12 12 11 11 11 10 10 10
24 23 23 21 19 18 17 16 15 15 16 16 15 14 14 14 14 14 13 11 10 10 11 12 13 14 14 14 15 14 14 14 13 13 12 12 11 11 10 9 9 9
25 25 25 23 21 19 19 18 16 15 16 16 15 15 15 15 14 14 12 11 9 8 9 11 13 14 15 15 15 15 15 15 14 13 12 12 11 10 9 8 8 8
27 27 26 25 22 20 20 19 18 17 16 15 16 16 16 16 15 15 13 11 9 8 8 9 12 14 15 16 16 16 16 15 14 13 12 12 11 10 9 8 7 6
28 28 27 26 24 23 22 22 21 20 18 17 17 17 17 17 17 16 14 12 10 9 8 10 12 15 16 16 17 17 16 15 15 14 13 12 11 10 9 8 7 7
29 29 28 28 27 26 25 25 24 22 21 19 19 18 18 19 18 17 15 13 12 11 10 11 13 15 17 17 17 17 16 15 15 14 13 12 11 10 9 9 8 7
31 30 30 29 29 28 28 28 27 25 24 23 21 20 20 20 19 19 17 16 15 13 12 12 13 16 18 18 18 18 17 16 16 15 14 13 12 11 10 9 9 8
33 32 32 32 31 31 31 30 29 28 26 25 24 23 22 21 21 20 20 19 17 16 14 13 13 15 18 19 19 19 18 18 17 16 15 14 13 12 11 10 9 8
36 35 35 34 33 33 33 31 30 29 28 28 27 26 24 23 23 22 22 22 20 18 17 16 14 15 17 19 20 21 20 20 19 18 17 16 15 14 13 12 11 9
38 38 37 36 36 35 34 33 32 30 30 30 28 27 27 26 25 24 24 23 22 21 20 19 17 16 17 19 20 21 22 22 21 20 19 18 17 16 15 13 12 11
37 39 39 38 37 35 35 34 34 33 32 31 30 29 29 29 28 27 26 25 24 24 23 21 20 19 19 19 21 22 23 23 23 22 22 21 19 18 17 15 14 14
35 38 40 40 38 37 36 36 35 35 34 33 32 31 31 30 30 29 28 27 27 26 25 23 22 21 21 21 21 22 23 24 25 25 24 23 22 20 19 18 17 16
32 36 40 41 40 40 39 38 37 36 35 34 33 33 32 32 31 30 30 29 29 28 27 25 24 23 23 23 22 22 23 24 26 26 26 25 24 22 21 20 19 17
32 34 37 40 41 41 41 40 39 38 36 35 34 34 34 33 32 32 31 31 30 29 28 27 26 26 25 25 24 24 24 25 26 27 27 27 26 25 24 22 21 19
32 32 34 37 40 42 42 42 40 39 37 37 36 36 35 34 33 33 33 32 31 31 30 29 28 28 27 27 27 27 27 26 26 27 28 28 27 27 26 25 23 22
33 31 32 34 37 41 42 43 42 40 39 38 38 37 37 36 36 35 35 34 33 32 32 30 29 29 29 29 28 29 29 29 28 27 27 27 28 28 28 28 27 25
35 32 32 33 35 38 40 42 42 41 40 40 39 39 39 38 38 38 37 36 36 35 33 32 31 31 31 30 30 31 31 31 29 28 27 27 27 28 29 30 30 29
37 34 32 33 34 35 37 39 41 41 41 41 40 40 40 39 39 39 39 39 38 36 34 33 32 33 33 32 32 33 33 32 30 29 28 27 27 28 28 29 29 30
38 35 33 33 33 33 34 35 38 39 40 41 41 41 40 40 39 39 39 39 38 37 36 34 34 35 35 34 34 34 34 33 32 30 29 28 28 28 28 28 29 30
40 37 35 34 34 33 33 34 35 36 38 39 39 39 39 39 39 39 38 38 38 37 37 36 36 36 37 36 36 36 36 35 34 32 30 29 28 28 28 29 29 31
42 40 38 37 36 34 34 33 33 33 33 34 34 35 36 37 37 37 37 37 38 38 38 37 37 38 38 38 38 38 37 37 36 34 31 30 29 29 29 29 30 32
Wind_Direction
193 201 204 198 196 198 196 195 196 200 201 198 192 186 179 172 171 171 169 167 164 163 161 161 162 160 157 157 157 157 157 155 154 154 152 150 149 147 145 145 146 148
194 202 206 203 198 197 198 196 194 197 199 197 193 190 186 179 174 172 170 168 166 164 164 165 165 164 163 161 161 161 161 158 155 155 153 152 151 150 150 150 151 152
197 201 205 205 201 198 201 199 192 193 196 196 195 196 195 186 176 173 173 170 169 168 167 169 169 168 167 166 165 165 165 161 158 159 157 153 153 154 154 155 156 157
199 203 205 206 203 199 202 202 195 192 195 198 199 199 197 190 180 176 176 174 173 173 173 173 173 172 172 171 169 169 168 164 161 161 160 156 155 157 158 161 162 163
199 204 206 206 205 200 201 206 203 197 197 201 202 201 198 192 183 179 179 179 179 179 179 179 178 176 175 175 174 173 170 167 163 163 162 160 160 162 164 168 170 170
198 203 208 208 207 202 200 207 209 204 202 204 204 203 202 195 187 183 182 183 185 185 185 185 184 182 180 179 178 176 173 170 168 166 165 163 164 166 170 174 178 178
200 202 206 208 207 203 202 207 211 211 208 206 204 205 205 200 193 188 185 185 188 190 190 191 190 187 185 183 181 179 176 175 174 171 169 167 167 170 173 178 184 187
205 204 206 207 205 204 205 206 210 214 214 211 207 205 204 204 200 194 189 188 190 193 195 195 194 192 189 186 184 182 180 180 180 178 174 172 171 170 173 179 187 193
208 207 207 207 204 202 205 208 209 212 215 214 212 208 205 206 205 199 194 192 191 194 197 198 196 195 193 191 187 186 185 184 184 184 181 177 173 171 173 178 186 193
210 209 209 209 206 203 204 207 209 210 211 213 214 211 208 209 208 204 200 197 194 194 197 199 198 197 196 195 193 192 191 190 189 188 187 183 178 176 179 184 190 197
211 210 209 209 209 206 204 206 208 209 209 211 213 213 211 211 209 207 205 203 202 200 198 198 199 199 199 199 199 200 198 195 194 193 191 188 186 186 189 193 199 206
210 211 210 210 210 210 208 207 207 208 208 210 212 212 213 212 209 207 207 208 210 209 206 202 200 202 203 203 204 204 203 201 199 197 196 195 194 196 199 202 207 212
209 210 211 211 210 211 212 210 208 207 209 211 212 213 214 213 211 209 207 210 214 215 215 213 207 205 207 208 208 208 207 205 203 202 201 201 202 203 205 208 212 216
210 210 211 212 212 211 212 213 211 209 209 212 213 214 216 216 215 212 211 212 214 216 220 221 217 213 212 211 211 211 210 208 208 207 206 206 208 208 210 212 215 219
212 211 211 212 213 213 213 214 214 213 212 213 214 216 218 219 220 218 216 215 216 216 219 222 223 220 217 215 214 213 213 212 211 211 211 212 213 213 214 216 218 221
215 214 213 214 214 215 215 214 215 215 215 215 216 217 219 220 222 222 222 221 221 221 220 220 223 224 223 220 218 216 216 216 215 215 215 217 218 218 219 220 221 223
219 217 216 216 215 216 217 217 216 216 217 217 218 219 220 222 223 224 225 225 225 226 225 223 222 226 228 227 223 221 220 219 219 219 219 220 222 223 223 223 224 225
223 220 218 217 217 217 218 218 218 218 218 219 220 221 223 224 225 226 227 228 228 229 229 228 226 228 231 232 230 228 225 223 223 223 223 224 225 226 226 226 227 227
227 225 222 220 219 219 220 220 220 220 219 220 221 223 225 226 227 228 229 230 231 232 232 232 231 231 232 234 235 235 232 229 227 226 227 227 227 229 229 230 230 230
229 229 227 224 222 221 222 222 222 221 221 221 222 223 225 227 228 230 231 232 233 234 234 234 234 235 235 236 237 239 239 236 233 231 231 230 229 231 233 234 235 235
229 229 229 229 227 225 224 224 224 223 222 223 223 224 225 226 227 229 231 233 234 235 235 235 236 237 238 238 239 240 242 242 240 238 237 235 233 233 234 236 238 239
227 227 228 229 230 230 228 227 226 225 225 224 225 226 226 226 227 229 230 232 234 234 235 236 236 237 239 240 241 242 244 244 244 243 242 241 240 238 237 237 239 240
225 226 227 228 231 232 231 230 228 227 227 227 226 227 228 229 229 230 231 232 234 235 236 235 236 239 240 240 241 243 245 247 246 246 245 244 243 243 242 241 241 242
224 224 224 226 228 230 229 229 229 229 229 229 229 228 230 231 231 232 234 236 237 238 238 237 237 240 242 242 243 245 247 248 248 248 246 246 245 246 246 246 245 244
223 223 223 224 225 226 226 226 227 229 230 231 232 232 232 234 234 235 236 238 239 240 241 240 240 241 243 244 245 247 248 249 250 249 248 247 247 246 246 247 248 247
222 222 221 222 223 224 226 226 226 227 230 233 235 236 237 238 239 239 239 240 240 241 242 243 242 242 244 245 246 247 248 249 251 251 251 249 248 247 247 247 249 250
Height
5936 5937 5938 5939 5940 5942 5944 5945 5946 5947 5948 5948 5949 5949 5950 5951 5951 5952 5953 5954 5954 5955 5956 5956 5957 5957 5958 5959 5960 5960 5961 5961 5962 5963 5963 5963 5964 5964 5965 5966 5967 5968
5934 5936 5937 5938 5940 5941 5943 5945 5946 5947 5948 5948 5949 5949 5950 5951 5952 5952 5953 5954 5955 5955 5956 5956 5957 5957 5958 5959 5960 5961 5961 5962 5962 5963 5963 5964 5964 5965 5965 5966 5967 5968
5933 5935 5936 5937 5938 5940 5942 5943 5945 5946 5948 5948 5949 5949 5950 5951 5952 5953 5953 5954 5955 5955 5956 5956 5957 5957 5958 5959 5960 5960 5961 5962 5963 5963 5964 5964 5964 5965 5966 5967 5968 5968
5932 5933 5934 5936 5937 5938 5940 5942 5944 5946 5947 5948 5948 5949 5950 5950 5951 5952 5953 5954 5955 5955 5956 5956 5957 5957 5958 5958 5959 5960 5961 5962 5962 5963 5964 5964 5965 5965 5966 5967 5968 5969
5930 5932 5933 5934 5936 5937 5939 5941 5943 5945 5946 5947 5948 5948 5949 5950 5951 5952 5953 5954 5954 5955 5956 5956 5956 5957 5957 5958 5959 5960 5960 5961 5962 5963 5964 5964 5965 5966 5966 5967 5968 5969
5928 5930 5932 5933 5935 5937 5938 5940 5941 5943 5945 5946 5947 5948 5949 5949 5950 5951 5952 5953 5954 5955 5955 5955 5956 5956 5957 5957 5958 5959 5960 5961 5961 5962 5963 5964 5965 5966 5966 5967 5968 5969
5927 5928 5930 5931 5933 5935 5937 5938 5940 5942 5943 5945 5946 5947 5948 5949 5949 5950 5951 5952 5953 5954 5954 5955 5956 5956 5957 5957 5958 5959 5959 5960 5961 5962 5963 5963 5964 5965 5966 5967 5968 5968
5925 5926 5928 5929 5932 5934 5936 5937 5939 5940 5942 5944 5945 5946 5947 5948 5949 5949 5950 5951 5952 5953 5954 5954 5955 5956 5956 5957 5957 5958 5959 5960 5961 5961 5962 5963 5964 5965 5966 5967 5967 5968
5923 5925 5926 5928 5930 5932 5934 5936 5937 5938 5940 5943 5944 5945 5946 5947 5948 5948 5949 5950 5950 5951 5952 5953 5954 5955 5956 5956 5957 5958 5958 5959 5960 5961 5962 5962 5963 5964 5965 5966 5967 5968
5922 5923 5925 5926 5928 5930 5931 5933 5935 5936 5938 5940 5942 5943 5945 5946 5947 5948 5948 5949 5949 5950 5951 5952 5953 5954 5955 5956 5956 5957 5958 5959 5960 5961 5961 5962 5963 5964 5964 5965 5966 5967
5919 5921 5923 5925 5926 5927 5928 5930 5932 5934 5936 5938 5939 5941 5943 5944 5946 5947 5948 5948 5948 5949 5949 5950 5951 5953 5954 5955 5956 5957 5957 5958 5959 5960 5961 5962 5962 5963 5964 5964 5965 5966
5916 5918 5920 5922 5923 5924 5925 5926 5928 5930 5933 5935 5937 5938 5940 5941 5943 5945 5946 5947 5947 5948 5948 5949 5950 5951 5952 5954 5955 5956 5957 5958 5959 5960 5960 5961 5962 5962 5963 5964 5964 5965
5913 5915 5917 5918 5920 5921 5922 5924 5925 5928 5930 5932 5934 5936 5937 5939 5941 5942 5944 5945 5946 5947 5947 5948 5949 5950 5951 5952 5954 5955 5956 5957 5958 5958 5959 5960 5961 5961 5962 5963 5964 5965
5909 5911 5913 5915 5916 5918 5919 5921 5923 5925 5927 5929 5931 5933 5935 5937 5938 5940 5941 5942 5944 5945 5946 5947 5949 5949 5950 5951 5952 5954 5955 5956 5956 5957 5958 5959 5959 5960 5961 5962 5963 5964
5906 5907 5909 5911 5913 5915 5917 5919 5920 5922 5924 5926 5928 5931 5932 5934 5936 5938 5939 5941 5942 5943 5944 5946 5947 5948 5949 5950 5951 5952 5953 5954 5955 5956 5957 5957 5958 5959 5960 5961 5961 5962
5903 5905 5906 5908 5910 5913 5914 5916 5917 5919 5921 5923 5925 5927 5929 5931 5933 5935 5937 5939 5940 5941 5942 5944 5945 5946 5947 5948 5949 5950 5951 5952 5953 5954 5955 5956 5957 5958 5959 5959 5960 5961
5900 5902 5904 5906 5908 5910 5911 5913 5914 5916 5918 5920 5922 5924 5926 5928 5930 5932 5935 5937 5938 5939 5941 5942 5944 5944 5945 5946 5947 5948 5949 5950 5951 5952 5953 5955 5956 5956 5957 5958 5958 5959
5898 5899 5901 5903 5905 5907 5908 5910 5911 5913 5915 5917 5919 5921 5923 5924 5927 5929 5931 5933 5935 5937 5938 5940 5942 5942 5943 5944 5945 5946 5947 5948 5949 5950 5951 5953 5954 5955 5956 5956 5957 5957
5896 5897 5898 5900 5902 5903 5905 5906 5908 5910 5912 5914 5916 5918 5919 5921 5923 5926 5928 5930 5932 5934 5936 5937 5939 5940 5940 5941 5942 5943 5944 5945 5946 5948 5949 5950 5952 5953 5954 5955 5955 5956
5893 5895 5897 5898 5899 5900 5901 5903 5905 5907 5909 5911 5913 5914 5916 5918 5920 5922 5924 5926 5928 5930 5932 5934 5935 5937 5938 5939 5940 5940 5941 5942 5944 5945 5946 5948 5949 5951 5952 5953 5953 5954
5890 5893 5895 5896 5896 5897 5899 5900 5902 5904 5906 5908 5909 5911 5913 5915 5916 5918 5920 5922 5924 5926 5928 5930 5932 5933 5934 5935 5936 5937 5938 5939 5941 5942 5944 5945 5947 5948 5949 5950 5951 5952
5888 5890 5891 5893 5893 5895 5896 5898 5899 5901 5902 5904 5905 5907 5909 5910 5912 5914 5916 5918 5919 5922 5924 5927 5929 5930 5931 5932 5933 5933 5934 5935 5937 5939 5941 5942 5943 5945 5946 5947 5948 5949
5884 5887 5888 5889 5890 5892 5894 5896 5897 5898 5899 5900 5902 5904 5905 5907 5909 5911 5912 5914 5915 5918 5921 5923 5925 5926 5927 5928 5929 5929 5930 5931 5934 5936 5938 5939 5940 5941 5943 5944 5945 5946
5881 5884 5885 5886 5888 5889 5891 5893 5894 5895 5896 5897 5899 5901 5903 5904 5906 5908 5909 5911 5913 5915 5917 5920 5921 5922 5923 5924 5925 5925 5926 5928 5930 5932 5934 5936 5937 5938 5939 5941 5941 5942
5878 5880 5882 5883 5885 5886 5888 5889 5891 5892 5893 5895 5897 5899 5901 5902 5904 5906 5907 5909 5911 5913 5914 5916 5918 5919 5919 5920 5921 5922 5923 5924 5925 5927 5930 5932 5933 5934 5936 5937 5937 5938
5875 5877 5878 5880 5882 5883 5885 5886 5887 5889 5890 5892 5894 5897 5898 5900 5901 5903 5905 5907 5908 5910 5911 5913 5915 5915 5916 5917 5917 5918 5919 5920 5921 5924 5926 5928 5929 5930 5932 5933 5933 5933